Location: Aiyekoto
(8.4333°N, 4.3667°E)
Time: 18:40:44
(UTC+00:00)

Envisat - Visible Passes

Search period start: 11 August 2020 00:00
Search period end: 21 August 2020 00:00
Orbit: 764 x 766 km, 98.1° (Epoch: 11 August)

Date Brightness Start Highest point End Pass type
(mag) Time Alt. Az. Time Alt. Az. Time Alt. Az.
11 Aug 5.3 04:53:25 10° NE 04:57:37 26° E 05:01:49 10° SSE visible
12 Aug 5.9 18:32:49 10° SW 18:35:24 14° W 18:38:00 10° WNW visible
14 Aug 5.7 04:42:41 10° NE 04:46:17 20° E 04:49:52 10° SE visible
15 Aug 5.8 18:20:30 10° SW 18:24:04 19° W 18:27:38 10° NW visible
16 Aug 4.5 05:06:57 10° NNE 05:11:41 40° ESE 05:16:25 10° S visible
17 Aug 5.9 04:32:18 10° ENE 04:34:57 14° E 04:37:35 10° SE visible
19 Aug 5.1 04:55:59 10° NE 05:00:21 29° E 05:04:44 10° SSE visible
20 Aug 6.1 18:36:06 10° SW 18:38:09 12° W 18:40:11 10° WNW visible
